Find Globalstar M035

NORAD ID: 25851 Int'l Des: 1999-037 Owner: GLOBT Country: US Constellation: globalstar operational
MEOCIRCULAR

Live-Position

3D-Globus wird geladen...

Über Globalstar M035

Beschreibung wird geladen...

Nächste Überflüge

Passes for default location (London). Set your location on the main map for personalized predictions.

Höhenverlauf

Loading altitude history...

Zweizeiliger Elementsatz

1 25851U 99037A 26107.30717450 -.00000115 00000-0 -19526-2 0 9996
2 25851 51.9929 96.7399 0013478 114.9664 23.8417 11.04541659129862
Epoch: 17. Apr. 2026 • Age: 9 hours

Aktueller Status

Höhe 2141.6 km
Geschwindigkeit 6.84 km/s
Subsatellitenpunkt -15.67°S, 163.73°W
Startdatum 10. Juli 1999
Alter 26.7 years
Typ communications

Technische Details

Klassifizierung Payload
Masse 450.00 kg
Trockenmasse 380.00 kg
Gesamtmasse 450.00 kg
Länge 1.50 m
Durchmesser 0.60 m
Spannweite 12.00 m
Form Box + 2 Pan
Hersteller LOR
Bus-Typ LS-400
Phasenstatus In Orbit
Besitzer/Staat GLOBT/US

Most Searched